Wind_Speed
5 6 6 7 7 7 8 9 9 10 10 11 11 12 13 13 14 14 14 15 16 17 18 18 18 19 19 20 21 22 23 24 25 26 27 28 28 29
6 6 7 8 8 9 10 10 11 11 12 12 13 14 14 14 15 15 16 17 17 18 19 20 20 20 21 21 22 23 24 25 26 26 27 28 29 30
7 8 8 9 9 9 10 11 12 12 12 13 14 15 16 16 17 17 18 18 19 19 20 21 21 22 22 23 23 24 25 25 26 26 28 28 30 31
8 9 10 10 11 11 12 12 13 13 14 15 15 16 16 17 17 18 19 19 20 21 21 21 22 23 24 25 26 26 27 27 27 28 29 30 31 31
10 11 11 12 13 13 14 15 15 15 16 16 17 17 17 18 18 18 19 20 21 22 22 23 24 25 25 26 27 28 28 29 30 31 31 32 32 33
11 12 13 14 15 15 16 16 17 17 17 17 18 18 19 20 20 21 22 23 24 24 24 25 25 26 26 27 28 28 30 30 31 32 33 33 34 35
13 13 14 15 15 16 16 17 17 17 17 18 18 19 20 21 22 23 24 25 26 26 26 26 26 27 27 28 29 29 30 32 32 33 34 35 35 36
14 14 15 15 16 16 17 17 18 18 18 18 19 20 21 21 23 24 25 25 26 27 27 27 28 29 29 29 29 30 31 32 32 33 34 35 36 37
15 16 16 16 17 17 18 18 18 18 19 19 20 21 22 23 24 25 25 26 27 27 28 28 29 30 31 31 32 32 33 33 34 35 36 37 37 38
15 16 17 17 18 18 18 18 18 19 20 21 22 22 23 24 25 26 27 28 28 29 29 30 31 32 33 33 34 34 35 36 37 37 38 38 39 40
16 17 17 18 18 18 18 19 19 20 21 22 23 24 25 26 27 28 28 29 30 31 31 31 32 32 33 34 35 36 37 37 38 39 40 40 40 40
17 18 18 18 19 19 19 20 20 21 22 23 25 26 27 27 28 29 30 31 31 31 32 33 33 33 33 34 35 37 37 38 39 40 41 41 41 41
18 19 19 19 20 20 21 21 22 23 24 25 26 27 27 28 28 29 31 31 32 32 33 33 34 35 35 36 37 38 39 40 40 41 41 41 41 42
20 20 20 20 21 22 22 22 23 24 25 27 27 27 28 28 29 30 31 32 32 33 34 34 35 36 37 38 38 39 40 40 40 41 41 41 41 42
20 20 21 22 22 23 23 24 25 26 27 27 27 28 28 29 30 30 31 32 33 33 34 35 36 37 38 38 38 39 40 40 41 41 40 40 40 41
21 22 23 24 25 26 26 26 26 27 28 28 29 29 29 30 31 32 33 34 35 35 35 35 36 36 37 38 38 39 39 39 40 40 41 41 41 42
24 24 24 25 26 26 26 27 27 27 28 28 29 29 30 32 33 34 35 35 35 35 35 36 36 37 37 38 38 38 39 40 40 41 41 42 43 43
25 25 25 25 25 26 27 27 28 28 28 29 30 31 32 33 34 35 36 36 37 37 37 37 37 37 38 38 39 39 40 41 41 41 42 42 42 43
25 25 25 25 26 26 27 27 28 29 29 30 31 32 33 34 35 36 36 36 37 37 37 37 37 37 38 38 39 40 41 41 41 41 42 42 41 41
25 26 26 26 27 27 29 29 30 30 31 31 32 33 34 35 36 36 36 37 37 37 37 37 37 38 38 39 40 41 41 41 42 42 41 41 40 40
26 26 27 28 29 30 31 31 31 32 33 34 34 34 35 36 36 37 36 36 37 37 37 37 37 38 39 40 40 41 41 42 42 41 40 39 39 39
28 29 29 29 31 31 32 32 33 34 35 35 35 36 37 37 37 37 37 37 36 36 36 37 37 38 39 40 41 41 41 40 40 40 40 40 39 38
30 31 31 31 31 32 33 33 34 35 35 35 36 36 37 37 37 37 37 37 37 36 37 37 38 38 39 40 40 41 41 40 40 39 39 39 39 39
Wind_Direction
287 289 291 295 297 299 298 297 298 298 293 290 289 289 290 293 294 295 295 296 296 295 294 293 290 287 287 286 285 284 283 282 281 281 280 278 277 277
285 288 292 295 298 296 295 297 298 297 297 294 293 292 292 294 294 296 296 296 296 297 296 294 292 289 287 287 286 285 284 285 283 282 282 280 280 279
287 289 291 294 296 296 296 297 299 299 298 297 295 294 293 294 294 294 295 296 296 297 297 295 293 292 290 288 287 286 286 286 285 284 283 283 283 283
292 293 293 294 296 296 296 297 298 298 298 297 297 296 295 295 296 295 296 297 299 299 298 297 295 293 293 292 289 289 288 287 286 285 284 284 285 284
290 291 293 294 294 295 295 295 295 295 295 295 295 297 297 297 297 299 300 301 300 300 299 298 296 295 295 295 294 292 292 291 288 289 285 286 286 286
290 292 292 293 294 295 295 295 295 295 294 295 295 296 296 297 297 298 299 299 300 299 297 297 297 297 297 296 296 294 293 293 292 291 290 289 289 289
290 293 295 294 295 296 296 296 296 296 297 297 297 297 297 298 298 299 299 300 301 300 299 298 298 298 298 297 297 296 295 294 293 292 291 290 290 289
288 290 292 294 295 297 298 298 298 298 299 300 300 300 300 300 302 302 302 302 303 302 300 300 299 299 299 299 298 297 297 296 295 294 293 292 291 290
286 289 292 295 296 297 298 299 299 298 299 300 301 301 302 302 303 304 304 304 304 303 301 300 300 299 299 298 297 297 297 297 296 295 295 294 294 293
287 290 293 295 297 298 299 299 298 299 299 300 301 302 302 302 303 303 304 304 304 304 302 301 300 299 298 298 297 297 297 297 297 297 296 295 295 294
286 291 294 294 295 296 297 299 299 299 299 300 301 302 302 302 303 303 304 304 304 304 303 302 302 301 300 299 298 298 298 298 297 297 297 296 296 296
286 289 292 294 295 296 297 298 299 300 301 301 301 301 302 302 303 303 304 304 304 304 303 303 303 302 302 301 300 300 299 299 298 297 297 297 296 296
286 289 291 294 296 297 297 297 298 300 301 302 303 303 303 303 304 304 304 305 305 304 304 304 304 303 302 302 302 302 302 301 300 300 299 298 297 296
285 287 290 293 296 297 297 298 299 299 301 303 304 304 304 304 305 306 306 306 305 304 303 303 303 303 303 304 303 303 303 303 302 301 301 300 299 298
287 288 290 292 295 297 298 300 301 301 302 303 304 305 306 306 307 307 308 308 307 306 305 304 304 304 305 305 304 304 304 304 303 303 303 303 302 301
287 290 291 293 294 296 297 300 301 302 302 303 304 304 305 307 308 308 308 309 309 308 306 306 306 306 307 307 307 306 306 306 305 304 304 303 303 303
287 288 290 292 293 293 296 298 300 302 303 304 304 304 305 306 307 308 308 309 309 308 308 307 307 308 308 308 308 308 308 307 306 305 305 305 305 305
286 288 290 291 293 295 297 298 300 301 302 303 304 305 305 306 307 307 307 307 307 307 307 308 308 308 309 309 310 309 309 308 307 307 307 306 307 307
286 289 290 291 293 295 298 300 302 302 303 303 303 304 305 306 307 308 307 307 308 308 308 308 308 308 309 310 311 311 311 310 309 308 308 308 307 308
287 289 290 291 294 296 298 299 300 301 302 303 303 304 305 306 307 308 308 307 307 308 308 308 308 309 310 311 312 313 313 313 311 310 309 308 308 308
287 288 289 292 294 296 297 298 299 300 301 302 303 304 305 306 307 308 308 307 307 307 308 309 309 309 310 312 313 314 314 314 313 313 311 310 309 309
287 288 289 292 294 295 297 298 299 300 301 302 303 304 304 305 306 307 307 306 306 307 308 309 310 311 312 313 314 314 314 314 314 314 313 313 312 312
285 287 289 291 292 294 296 298 299 300 300 301 302 303 305 305 305 306 306 305 305 306 307 308 309 311 312 313 314 315 315 314 314 315 315 314 314 314
Height
5855 5854 5853 5853 5852 5851 5850 5849 5848 5846 5845 5844 5842 5841 5840 5838 5837 5835 5834 5832 5830 5828 5826 5824 5823 5821 5819 5817 5815 5814 5812 5810 5809 5807 5806 5804 5803 5801
5853 5853 5852 5851 5850 5849 5848 5846 5845 5844 5842 5841 5840 5838 5837 5835 5833 5832 5830 5828 5826 5824 5822 5820 5818 5816 5814 5812 5810 5808 5806 5804 5802 5800 5799 5797 5795 5794
5851 5851 5850 5849 5848 5847 5845 5844 5843 5841 5840 5838 5836 5835 5833 5832 5830 5828 5826 5824 5822 5820 5817 5815 5813 5810 5808 5806 5804 5802 5800 5797 5795 5793 5792 5790 5788 5786
5849 5848 5847 5846 5845 5844 5843 5841 5840 5838 5837 5835 5833 5831 5829 5828 5826 5824 5822 5819 5817 5815 5812 5810 5807 5805 5803 5800 5798 5795 5793 5791 5789 5787 5784 5782 5780 5778
5847 5846 5845 5844 5842 5841 5839 5838 5836 5834 5833 5831 5829 5827 5825 5823 5821 5819 5817 5815 5812 5810 5807 5804 5802 5799 5797 5794 5791 5788 5786 5784 5781 5779 5776 5774 5771 5769
5844 5843 5841 5840 5839 5837 5835 5834 5832 5830 5828 5827 5825 5823 5821 5819 5817 5814 5812 5809 5806 5804 5801 5798 5796 5793 5790 5787 5784 5782 5779 5776 5773 5770 5768 5765 5762 5760
5841 5839 5838 5836 5834 5833 5831 5829 5827 5826 5824 5822 5820 5818 5816 5813 5811 5808 5806 5803 5800 5797 5794 5792 5789 5786 5783 5780 5777 5774 5771 5768 5765 5762 5759 5756 5753 5750
5837 5835 5834 5832 5830 5829 5827 5825 5823 5821 5819 5817 5815 5812 5810 5808 5805 5802 5799 5797 5794 5791 5787 5784 5781 5778 5775 5772 5769 5766 5763 5759 5756 5753 5749 5746 5743 5740
5832 5831 5829 5828 5826 5824 5822 5820 5818 5816 5815 5813 5810 5807 5805 5802 5799 5796 5793 5790 5787 5783 5780 5777 5774 5770 5767 5764 5760 5757 5754 5750 5747 5743 5740 5736 5732 5728
5827 5826 5825 5823 5821 5820 5818 5816 5813 5811 5809 5807 5805 5802 5799 5796 5793 5790 5786 5783 5780 5776 5773 5770 5766 5762 5758 5755 5752 5748 5744 5741 5737 5733 5729 5725 5721 5717
5823 5821 5820 5818 5817 5815 5813 5811 5808 5806 5804 5801 5799 5796 5792 5789 5786 5783 5779 5776 5773 5769 5765 5761 5758 5754 5750 5746 5742 5738 5734 5730 5726 5722 5718 5713 5709 5705
5818 5816 5815 5813 5811 5809 5807 5805 5803 5801 5798 5795 5792 5789 5786 5782 5779 5776 5772 5768 5765 5761 5757 5753 5749 5745 5741 5737 5732 5728 5724 5720 5715 5711 5706 5701 5697 5693
5812 5811 5810 5808 5806 5804 5801 5799 5797 5794 5791 5789 5785 5782 5778 5775 5771 5768 5764 5760 5756 5753 5749 5744 5740 5736 5732 5728 5723 5718 5713 5709 5704 5699 5694 5690 5685 5680
5807 5806 5804 5802 5800 5798 5795 5793 5790 5788 5785 5782 5778 5775 5771 5767 5764 5760 5756 5752 5748 5744 5739 5735 5731 5726 5722 5717 5713 5708 5702 5697 5692 5688 5683 5678 5673 5668
5801 5800 5798 5796 5794 5792 5789 5787 5784 5781 5778 5775 5771 5768 5764 5760 5756 5752 5748 5744 5739 5735 5730 5726 5721 5717 5712 5707 5702 5697 5692 5687 5681 5676 5671 5666 5661 5656
5795 5793 5792 5789 5787 5785 5782 5780 5777 5774 5770 5767 5764 5760 5756 5752 5748 5744 5740 5735 5730 5725 5720 5716 5711 5706 5702 5697 5692 5687 5682 5676 5671 5666 5660 5655 5650 5644
5788 5787 5785 5782 5780 5778 5775 5772 5769 5766 5763 5760 5756 5752 5748 5744 5740 5736 5731 5726 5721 5717 5712 5707 5701 5696 5691 5687 5682 5676 5671 5665 5660 5654 5649 5643 5638 5632
5781 5779 5777 5775 5773 5770 5768 5765 5762 5759 5755 5752 5748 5744 5740 5736 5731 5727 5722 5717 5712 5707 5703 5698 5693 5688 5682 5676 5671 5666 5660 5654 5648 5642 5637 5631 5626 5620
5773 5771 5769 5767 5765 5763 5760 5757 5754 5750 5747 5743 5740 5736 5731 5727 5722 5718 5713 5708 5703 5698 5693 5688 5683 5678 5673 5668 5661 5655 5649 5643 5637 5631 5625 5620 5614 5608
5766 5764 5762 5759 5757 5755 5752 5749 5746 5742 5738 5735 5731 5727 5722 5718 5713 5708 5703 5698 5694 5689 5684 5678 5673 5668 5662 5657 5651 5645 5638 5632 5626 5620 5614 5608 5603 5597
5758 5755 5753 5751 5749 5746 5743 5740 5737 5733 5730 5726 5722 5718 5713 5708 5704 5699 5694 5689 5684 5679 5674 5669 5663 5658 5652 5647 5641 5635 5628 5622 5615 5609 5603 5598 5593 5587
5749 5747 5745 5742 5740 5737 5734 5731 5728 5724 5720 5716 5712 5708 5703 5699 5694 5689 5684 5679 5674 5669 5665 5659 5654 5648 5643 5637 5631 5625 5619 5613 5606 5600 5593 5588 5582 5577
5740 5738 5736 5733 5731 5728 5725 5721 5718 5714 5710 5706 5702 5698 5693 5689 5684 5679 5674 5669 5665 5660 5655 5650 5644 5639 5633 5627 5621 5615 5609 5603 5597 5591 5585 5578 5573 5567